Douglas, WY

3:37 PM MST on November 24, 2017 (GMT -0700)
Converse County

Weather History for KDGW - October, 2013

Change the Weather History Date:

Sunday, October 27, 2013

  Actual Average Record
Temperature  
Mean Temperature 49 °F 42 °F  
Max Temperature 67 °F 57 °F 81 °F (2016)
Min Temperature 30 °F 27 °F 12 °F (2017)
Degree Days  
Heating Degree Days 16 23  
Month to date heating degree days 569 503  
Since 1 July heating degree days 707 772  
Cooling Degree Days 0 0  
Month to date cooling degree days 0 0  
Year to date cooling degree days 739 486  
Moisture  
Dew Point 27 °F    
Average Humidity 49    
Maximum Humidity 82    
Minimum Humidity 16    
Precipitation  
Precipitation 0.00 in 0.02 in 0.49 in (2015)
Month to date precipitation 0.01 0.98  
Year to date precipitation 7.27 12.26  
Sea Level Pressure  
Sea Level Pressure 29.89 in    
Wind  
Wind Speed 10 mph (North)    
Max Wind Speed 28 mph    
Max Gust Speed 33 mph    
Visibility 10 miles    
Events Thunderstorm    
T = Trace of Precipitation, MM = Missing Value Source: NWS Daily Summary

Daily Weather History Graph

Daily Weather History Graph

Search for Another Location

Airport or City:

Trip Planner

Search our weather history database for the weather conditions in past years. The results will help you decide how hot, cold, wet, or windy it might be!

Date:

Astronomy

Oct. 27, 2013 Rise Set
Actual Time 7:29 AM MDT 6:00 PM MDT
Civil Twilight 7:00 AM MDT 6:29 PM MDT
Nautical Twilight 6:27 AM MDT 7:02 PM MDT
Astronomical Twilight 5:54 AM MDT 7:35 PM MDT
Moon 12:20 AM MDT (10/27) 2:19 PM MDT (10/27)
Length of Visible Light 11h 28m
Length of Day
10h 30m
Last Quarter, 43% of the Moon is Illuminated
Oct 27
Last Quarter
Nov 3
New
Nov 9
First Quarter
Nov 17
Full
Nov 25
Last Quarter

Hourly Weather History & Observations

Time (MDT) Temp. Windchill Dew Point Humidity Pressure Visibility Wind Dir Wind Speed Gust Speed Precip Events Conditions
12:53 AM 33.1 °F - 28.0 °F 82% 30.03 in 10.0 mi Calm Calm - N/A   Clear
1:53 AM 34.0 °F - 28.0 °F 79% 30.01 in 10.0 mi Calm Calm - N/A   Clear
2:53 AM 33.1 °F - 28.0 °F 82% 29.99 in 10.0 mi Calm Calm - N/A   Clear
3:53 AM 34.0 °F 29.8 °F 27.0 °F 75% 29.96 in 10.0 mi North 4.6 mph - N/A   Clear
4:53 AM 32.0 °F - 27.0 °F 82% 29.96 in 10.0 mi Calm Calm - N/A   Clear
5:53 AM 33.1 °F - 27.0 °F 78% 29.97 in 10.0 mi Calm Calm - N/A   Clear
6:53 AM 30.9 °F 27.5 °F 25.0 °F 79% 29.96 in 10.0 mi South 3.5 mph - N/A   Clear
7:53 AM 30.0 °F - 25.0 °F 82% 29.97 in 10.0 mi Calm Calm - N/A   Clear
8:53 AM 37.9 °F - 32.0 °F 79% 29.98 in 10.0 mi Calm Calm - N/A   Clear
9:53 AM 50.0 °F - 35.1 °F 57% 29.92 in 10.0 mi Calm Calm - N/A   Clear
10:53 AM 62.1 °F - 27.0 °F 26% 29.86 in 10.0 mi West 18.4 mph 24.2 mph N/A   Clear
11:53 AM 63.0 °F - 25.0 °F 24% 29.86 in 10.0 mi West 23.0 mph 29.9 mph N/A   Clear
12:53 PM 64.9 °F - 23.0 °F 20% 29.82 in 10.0 mi WNW 18.4 mph 24.2 mph N/A   Clear
1:53 PM 66.0 °F - 21.9 °F 19% 29.78 in 10.0 mi West 19.6 mph 29.9 mph N/A   Clear
2:53 PM 66.0 °F - 19.9 °F 17% 29.76 in 10.0 mi WNW 23.0 mph 31.1 mph N/A   Clear
3:53 PM 66.0 °F - 21.9 °F 19% 29.76 in 10.0 mi WNW 19.6 mph 27.6 mph N/A   Clear
4:53 PM 64.0 °F - 21.9 °F 20% 29.78 in 10.0 mi West 15.0 mph - N/A   Partly Cloudy
5:53 PM 57.0 °F - 24.1 °F 28% 29.80 in 10.0 mi Calm Calm - N/A   Partly Cloudy
6:53 PM 52.0 °F - 28.9 °F 41% 29.85 in 10.0 mi North 8.1 mph - N/A Thunderstorm Scattered Clouds
7:10 PM 53.6 °F - 26.6 °F 35% 29.86 in 10.0 mi NE 12.7 mph - N/A Thunderstorm Scattered Clouds
7:34 PM 55.4 °F - 26.6 °F 33% 29.87 in 10.0 mi ENE 10.4 mph - N/A   Scattered Clouds
7:53 PM 51.1 °F - 28.9 °F 43% 29.87 in 10.0 mi East 10.4 mph - N/A   Mostly Cloudy
8:53 PM 48.9 °F - 30.0 °F 48% 29.85 in 10.0 mi ENE 12.7 mph - N/A   Overcast
9:53 PM 46.9 °F - 32.0 °F 56% 29.86 in 10.0 mi East 6.9 mph - N/A   Clear
10:53 PM 44.1 °F 39.5 °F 34.0 °F 68% 29.87 in 10.0 mi SE 8.1 mph - N/A   Mostly Cloudy
11:53 PM 39.9 °F 30.8 °F 33.1 °F 77% 29.91 in 10.0 mi East 18.4 mph - N/A   Mostly Cloudy